User: anonymous   Login
Location: Unspecified
(0.0000°N, 0.0000°E)
Time: 01:55:40
(UTC+00:00)
Language:

STARLINK-34904 - Orbit

View from above orbital plane
View from above orbital plane
View from above satellite
View from above satellite

Ground track
Ground track

The orbit is defined by the following mean orbital elements,

1 65274U          26145.41579156 +.00000000 +00000-0 +40681-3 0 00005
2 65274  97.4504 197.8801 0001546 122.4221 237.7156 15.05659788    04
Epoch (UTC): 25 May 2026 09:58:44
Eccentricity: 0.0001546
inclination: 97.4504°
perigee height: 548 km
apogee height: 551 km
right ascension of ascending node: 197.8801°
argument of perigee: 122.4221°
revolutions per day: 15.05659788
mean anomaly at epoch: 237.7156°

The dashed part of the orbit path shows where the satellite is in the earth's shadow,  

DLR